owner,sensor,date,latitude,longitude,sea_surface_height_above_sea_level,qcFlag 
COMPS,ioos:station:USF.COMPS:ARP:1,2017-07-01T00:00:00Z,28.4330,-82.6670,-9.74,1111122 
COMPS,ioos:station:USF.COMPS:ARP:1,2017-07-01T00:06:00Z,28.4330,-82.6670,-9.75,1111122 
COMPS,ioos:station:USF.COMPS:ARP:1,2017-07-01T00:12:00Z,28.4330,-82.6670,-9.755,1111122 
COMPS,ioos:station:USF.COMPS:ARP:1,2017-07-01T00:18:00Z,28.4330,-82.6670,-9.768,1111122 
COMPS,ioos:station:USF.COMPS:ARP:1,2017-07-01T00:24:00Z,28.4330,-82.6670,-9.779,1111122 
COMPS,ioos:station:USF.COMPS:ARP:1,2017-07-01T00:30:00Z,28.4330,-82.6670,-9.801,1111122 
COMPS,ioos:station:USF.COMPS:ARP:1,2017-07-01T00:36:00Z,28.4330,-82.6670,-9.823,1111122 
COMPS,ioos:station:USF.COMPS:ARP:1,2017-07-01T00:42:00Z,28.4330,-82.6670,-9.837,1111122 
COMPS,ioos:station:USF.COMPS:ARP:1,2017-07-01T00:48:00Z,28.4330,-82.6670,-9.853,1111122 
COMPS,ioos:station:USF.COMPS:ARP:1,2017-07-01T00:54:00Z,28.4330,-82.6670,-9.881,1111122 
COMPS,ioos:station:USF.COMPS:ARP:1,2017-07-01T01:00:00Z,28.4330,-82.6670,-9.899,1111122 
COMPS,ioos:station:USF.COMPS:ARP:1,2017-07-01T01:06:00Z,28.4330,-82.6670,-9.9,1111122 
COMPS,ioos:station:USF.COMPS:ARP:1,2017-07-01T01:12:00Z,28.4330,-82.6670,-9.903,1111122 
COMPS,ioos:station:USF.COMPS:ARP:1,2017-07-01T01:18:00Z,28.4330,-82.6670,-9.913,1111122 
COMPS,ioos:station:USF.COMPS:ARP:1,2017-07-01T01:24:00Z,28.4330,-82.6670,-9.918,1111122 
COMPS,ioos:station:USF.COMPS:ARP:1,2017-07-01T01:30:00Z,28.4330,-82.6670,-9.915,1111122 
COMPS,ioos:station:USF.COMPS:ARP:1,2017-07-01T01:36:00Z,28.4330,-82.6670,-9.921,1111122 
COMPS,ioos:station:USF.COMPS:ARP:1,2017-07-01T01:42:00Z,28.4330,-82.6670,-9.932,1111122 
COMPS,ioos:station:USF.COMPS:ARP:1,2017-07-01T01:48:00Z,28.4330,-82.6670,-9.938,1111122 
COMPS,ioos:station:USF.COMPS:ARP:1,2017-07-01T01:54:00Z,28.4330,-82.6670,-9.95,1111122 
COMPS,ioos:station:USF.COMPS:ARP:1,2017-07-01T02:00:00Z,28.4330,-82.6670,-9.959,1111122 
COMPS,ioos:station:USF.COMPS:ARP:1,2017-07-01T02:06:00Z,28.4330,-82.6670,-9.97,1111122 
COMPS,ioos:station:USF.COMPS:ARP:1,2017-07-01T02:12:00Z,28.4330,-82.6670,-9.983,1111122 
COMPS,ioos:station:USF.COMPS:ARP:1,2017-07-01T02:18:00Z,28.4330,-82.6670,-9.992,1111122 
COMPS,ioos:station:USF.COMPS:ARP:1,2017-07-01T09:06:00Z,28.4330,-82.6670,-9.998,1111122 
COMPS,ioos:station:USF.COMPS:ARP:1,2017-07-01T09:12:00Z,28.4330,-82.6670,-9.978,1111122 
COMPS,ioos:station:USF.COMPS:ARP:1,2017-07-01T09:18:00Z,28.4330,-82.6670,-9.957,1111122 
COMPS,ioos:station:USF.COMPS:ARP:1,2017-07-01T09:24:00Z,28.4330,-82.6670,-9.935,1111122 
COMPS,ioos:station:USF.COMPS:ARP:1,2017-07-01T09:30:00Z,28.4330,-82.6670,-9.917,1111122 
COMPS,ioos:station:USF.COMPS:ARP:1,2017-07-01T09:36:00Z,28.4330,-82.6670,-9.9,1111122 
COMPS,ioos:station:USF.COMPS:ARP:1,2017-07-01T09:42:00Z,28.4330,-82.6670,-9.882,1111122 
COMPS,ioos:station:USF.COMPS:ARP:1,2017-07-01T09:48:00Z,28.4330,-82.6670,-9.863,1111122 
COMPS,ioos:station:USF.COMPS:ARP:1,2017-07-01T09:54:00Z,28.4330,-82.6670,-9.844,1111122 
COMPS,ioos:station:USF.COMPS:ARP:1,2017-07-01T10:00:00Z,28.4330,-82.6670,-9.825,1111122 
COMPS,ioos:station:USF.COMPS:ARP:1,2017-07-01T10:06:00Z,28.4330,-82.6670,-9.808,1111122 
COMPS,ioos:station:USF.COMPS:ARP:1,2017-07-01T10:12:00Z,28.4330,-82.6670,-9.792,1111122 
COMPS,ioos:station:USF.COMPS:ARP:1,2017-07-01T10:18:00Z,28.4330,-82.6670,-9.777,1111122 
COMPS,ioos:station:USF.COMPS:ARP:1,2017-07-01T10:24:00Z,28.4330,-82.6670,-9.764,1111122 
COMPS,ioos:station:USF.COMPS:ARP:1,2017-07-01T10:30:00Z,28.4330,-82.6670,-9.75,1111122 
COMPS,ioos:station:USF.COMPS:ARP:1,2017-07-01T10:36:00Z,28.4330,-82.6670,-9.734,1111122 
COMPS,ioos:station:USF.COMPS:ARP:1,2017-07-01T10:42:00Z,28.4330,-82.6670,-9.721,1111122 
COMPS,ioos:station:USF.COMPS:ARP:1,2017-07-01T10:48:00Z,28.4330,-82.6670,-9.71,1111122 
COMPS,ioos:station:USF.COMPS:ARP:1,2017-07-01T10:54:00Z,28.4330,-82.6670,-9.695,1111122 
COMPS,ioos:station:USF.COMPS:ARP:1,2017-07-01T11:00:00Z,28.4330,-82.6670,-9.679,1111122 
COMPS,ioos:station:USF.COMPS:ARP:1,2017-07-01T11:06:00Z,28.4330,-82.6670,-9.667,1111122 
COMPS,ioos:station:USF.COMPS:ARP:1,2017-07-01T11:12:00Z,28.4330,-82.6670,-9.655,1111122 
COMPS,ioos:station:USF.COMPS:ARP:1,2017-07-01T11:18:00Z,28.4330,-82.6670,-9.641,1111122 
COMPS,ioos:station:USF.COMPS:ARP:1,2017-07-01T11:24:00Z,28.4330,-82.6670,-9.64,1111122 
COMPS,ioos:station:USF.COMPS:ARP:1,2017-07-01T11:30:00Z,28.4330,-82.6670,-9.639,1111122 
COMPS,ioos:station:USF.COMPS:ARP:1,2017-07-01T11:36:00Z,28.4330,-82.6670,-9.639,1111122 
COMPS,ioos:station:USF.COMPS:ARP:1,2017-07-01T11:42:00Z,28.4330,-82.6670,-9.628,1111122 
COMPS,ioos:station:USF.COMPS:ARP:1,2017-07-01T11:48:00Z,28.4330,-82.6670,-9.617,1111122 
COMPS,ioos:station:USF.COMPS:ARP:1,2017-07-01T11:54:00Z,28.4330,-82.6670,-9.613,1111122 
COMPS,ioos:station:USF.COMPS:ARP:1,2017-07-01T12:00:00Z,28.4330,-82.6670,-9.6,1111122 
COMPS,ioos:station:USF.COMPS:ARP:1,2017-07-01T12:06:00Z,28.4330,-82.6670,-9.583,1111122 
COMPS,ioos:station:USF.COMPS:ARP:1,2017-07-01T12:12:00Z,28.4330,-82.6670,-9.576,1111122 
COMPS,ioos:station:USF.COMPS:ARP:1,2017-07-01T12:18:00Z,28.4330,-82.6670,-9.574,1111122 
COMPS,ioos:station:USF.COMPS:ARP:1,2017-07-01T12:24:00Z,28.4330,-82.6670,-9.577,1111122 
COMPS,ioos:station:USF.COMPS:ARP:1,2017-07-01T12:30:00Z,28.4330,-82.6670,-9.581,1111122 
COMPS,ioos:station:USF.COMPS:ARP:1,2017-07-01T12:36:00Z,28.4330,-82.6670,-9.587,1111122 
COMPS,ioos:station:USF.COMPS:ARP:1,2017-07-01T12:42:00Z,28.4330,-82.6670,-9.596,1111122 
COMPS,ioos:station:USF.COMPS:ARP:1,2017-07-01T12:48:00Z,28.4330,-82.6670,-9.607,1111122 
COMPS,ioos:station:USF.COMPS:ARP:1,2017-07-01T12:54:00Z,28.4330,-82.6670,-9.609,1111122 
COMPS,ioos:station:USF.COMPS:ARP:1,2017-07-01T13:00:00Z,28.4330,-82.6670,-9.615,1111122 
COMPS,ioos:station:USF.COMPS:ARP:1,2017-07-01T13:06:00Z,28.4330,-82.6670,-9.614,1111122 
COMPS,ioos:station:USF.COMPS:ARP:1,2017-07-01T13:12:00Z,28.4330,-82.6670,-9.611,1111122 
COMPS,ioos:station:USF.COMPS:ARP:1,2017-07-01T13:18:00Z,28.4330,-82.6670,-9.621,1111122 
COMPS,ioos:station:USF.COMPS:ARP:1,2017-07-01T13:24:00Z,28.4330,-82.6670,-9.635,1111122 
COMPS,ioos:station:USF.COMPS:ARP:1,2017-07-01T13:30:00Z,28.4330,-82.6670,-9.648,1111122 
COMPS,ioos:station:USF.COMPS:ARP:1,2017-07-01T13:36:00Z,28.4330,-82.6670,-9.665,1111122 
COMPS,ioos:station:USF.COMPS:ARP:1,2017-07-01T13:42:00Z,28.4330,-82.6670,-9.68,1111122 
COMPS,ioos:station:USF.COMPS:ARP:1,2017-07-01T13:48:00Z,28.4330,-82.6670,-9.702,1111122 
COMPS,ioos:station:USF.COMPS:ARP:1,2017-07-01T13:54:00Z,28.4330,-82.6670,-9.723,1111122 
COMPS,ioos:station:USF.COMPS:ARP:1,2017-07-01T14:00:00Z,28.4330,-82.6670,-9.735,1111122 
COMPS,ioos:station:USF.COMPS:ARP:1,2017-07-01T14:06:00Z,28.4330,-82.6670,-9.748,1111122 
COMPS,ioos:station:USF.COMPS:ARP:1,2017-07-01T14:12:00Z,28.4330,-82.6670,-9.76,1111122 
COMPS,ioos:station:USF.COMPS:ARP:1,2017-07-01T14:18:00Z,28.4330,-82.6670,-9.771,1111122 
COMPS,ioos:station:USF.COMPS:ARP:1,2017-07-01T14:24:00Z,28.4330,-82.6670,-9.788,1111122 
COMPS,ioos:station:USF.COMPS:ARP:1,2017-07-01T14:30:00Z,28.4330,-82.6670,-9.799,1111122 
COMPS,ioos:station:USF.COMPS:ARP:1,2017-07-01T14:36:00Z,28.4330,-82.6670,-9.818,1111122 
COMPS,ioos:station:USF.COMPS:ARP:1,2017-07-01T14:42:00Z,28.4330,-82.6670,-9.831,1111122 
COMPS,ioos:station:USF.COMPS:ARP:1,2017-07-01T14:48:00Z,28.4330,-82.6670,-9.837,1111122 
COMPS,ioos:station:USF.COMPS:ARP:1,2017-07-01T14:54:00Z,28.4330,-82.6670,-9.855,1111122 
COMPS,ioos:station:USF.COMPS:ARP:1,2017-07-01T15:00:00Z,28.4330,-82.6670,-9.871,1111122 
COMPS,ioos:station:USF.COMPS:ARP:1,2017-07-01T15:06:00Z,28.4330,-82.6670,-9.887,1111122 
COMPS,ioos:station:USF.COMPS:ARP:1,2017-07-01T15:12:00Z,28.4330,-82.6670,-9.904,1111122 
COMPS,ioos:station:USF.COMPS:ARP:1,2017-07-01T15:18:00Z,28.4330,-82.6670,-9.918,1111122 
COMPS,ioos:station:USF.COMPS:ARP:1,2017-07-01T15:24:00Z,28.4330,-82.6670,-9.929,1111122 
COMPS,ioos:station:USF.COMPS:ARP:1,2017-07-01T15:30:00Z,28.4330,-82.6670,-9.944,1111122 
COMPS,ioos:station:USF.COMPS:ARP:1,2017-07-01T15:36:00Z,28.4330,-82.6670,-9.96,1111122 
COMPS,ioos:station:USF.COMPS:ARP:1,2017-07-01T15:42:00Z,28.4330,-82.6670,-9.972,1111122 
COMPS,ioos:station:USF.COMPS:ARP:1,2017-07-01T15:48:00Z,28.4330,-82.6670,-9.987,1111122 
COMPS,ioos:station:USF.COMPS:ARP:1,2017-07-01T15:54:00Z,28.4330,-82.6670,-9.996,1111122 
COMPS,ioos:station:USF.COMPS:ARP:1,2017-07-01T21:54:00Z,28.4330,-82.6670,-9.999,1111122 
COMPS,ioos:station:USF.COMPS:ARP:1,2017-07-01T22:00:00Z,28.4330,-82.6670,-9.985,1111122 
COMPS,ioos:station:USF.COMPS:ARP:1,2017-07-01T22:06:00Z,28.4330,-82.6670,-9.97,1111122 
COMPS,ioos:station:USF.COMPS:ARP:1,2017-07-01T22:12:00Z,28.4330,-82.6670,-9.954,1111122 
COMPS,ioos:station:USF.COMPS:ARP:1,2017-07-01T22:18:00Z,28.4330,-82.6670,-9.941,1111122 
COMPS,ioos:station:USF.COMPS:ARP:1,2017-07-01T22:24:00Z,28.4330,-82.6670,-9.929,1111122 
COMPS,ioos:station:USF.COMPS:ARP:1,2017-07-01T22:30:00Z,28.4330,-82.6670,-9.918,1111122 
COMPS,ioos:station:USF.COMPS:ARP:1,2017-07-01T22:36:00Z,28.4330,-82.6670,-9.908,1111122 
COMPS,ioos:station:USF.COMPS:ARP:1,2017-07-01T22:42:00Z,28.4330,-82.6670,-9.899,1111122 
COMPS,ioos:station:USF.COMPS:ARP:1,2017-07-01T22:48:00Z,28.4330,-82.6670,-9.889,1111122 
COMPS,ioos:station:USF.COMPS:ARP:1,2017-07-01T22:54:00Z,28.4330,-82.6670,-9.88,1111122 
COMPS,ioos:station:USF.COMPS:ARP:1,2017-07-01T23:00:00Z,28.4330,-82.6670,-9.872,1111122 
COMPS,ioos:station:USF.COMPS:ARP:1,2017-07-01T23:06:00Z,28.4330,-82.6670,-9.86,1111122 
COMPS,ioos:station:USF.COMPS:ARP:1,2017-07-01T23:12:00Z,28.4330,-82.6670,-9.851,1111122 
COMPS,ioos:station:USF.COMPS:ARP:1,2017-07-01T23:18:00Z,28.4330,-82.6670,-9.843,1111122 
COMPS,ioos:station:USF.COMPS:ARP:1,2017-07-01T23:24:00Z,28.4330,-82.6670,-9.83,1111122 
COMPS,ioos:station:USF.COMPS:ARP:1,2017-07-01T23:30:00Z,28.4330,-82.6670,-9.822,1111122 
COMPS,ioos:station:USF.COMPS:ARP:1,2017-07-01T23:36:00Z,28.4330,-82.6670,-9.814,1111122 
COMPS,ioos:station:USF.COMPS:ARP:1,2017-07-01T23:42:00Z,28.4330,-82.6670,-9.805,1111122 
COMPS,ioos:station:USF.COMPS:ARP:1,2017-07-01T23:48:00Z,28.4330,-82.6670,-9.798,1111122 
COMPS,ioos:station:USF.COMPS:ARP:1,2017-07-01T23:54:00Z,28.4330,-82.6670,-9.792,1111122 
COMPS,ioos:station:USF.COMPS:ARP:1,2017-07-02T00:00:00Z,28.4330,-82.6670,-9.789,1111122 
COMPS,ioos:station:USF.COMPS:ARP:1,2017-07-02T00:06:00Z,28.4330,-82.6670,-9.788,1111122 
COMPS,ioos:station:USF.COMPS:ARP:1,2017-07-02T00:12:00Z,28.4330,-82.6670,-9.788,1111122 
COMPS,ioos:station:USF.COMPS:ARP:1,2017-07-02T00:18:00Z,28.4330,-82.6670,-9.792,1111122 
COMPS,ioos:station:USF.COMPS:ARP:1,2017-07-02T00:24:00Z,28.4330,-82.6670,-9.798,1111122 
COMPS,ioos:station:USF.COMPS:ARP:1,2017-07-02T00:30:00Z,28.4330,-82.6670,-9.809,1111122 
COMPS,ioos:station:USF.COMPS:ARP:1,2017-07-02T00:36:00Z,28.4330,-82.6670,-9.814,1111122 
COMPS,ioos:station:USF.COMPS:ARP:1,2017-07-02T00:42:00Z,28.4330,-82.6670,-9.819,1111122 
COMPS,ioos:station:USF.COMPS:ARP:1,2017-07-02T00:48:00Z,28.4330,-82.6670,-9.819,1111122 
COMPS,ioos:station:USF.COMPS:ARP:1,2017-07-02T00:54:00Z,28.4330,-82.6670,-9.827,1111122 
COMPS,ioos:station:USF.COMPS:ARP:1,2017-07-02T01:00:00Z,28.4330,-82.6670,-9.824,1111122 
COMPS,ioos:station:USF.COMPS:ARP:1,2017-07-02T01:06:00Z,28.4330,-82.6670,-9.827,1111122 
COMPS,ioos:station:USF.COMPS:ARP:1,2017-07-02T01:12:00Z,28.4330,-82.6670,-9.833,1111122 
COMPS,ioos:station:USF.COMPS:ARP:1,2017-07-02T01:18:00Z,28.4330,-82.6670,-9.843,1111122 
COMPS,ioos:station:USF.COMPS:ARP:1,2017-07-02T01:24:00Z,28.4330,-82.6670,-9.855,1111122 
COMPS,ioos:station:USF.COMPS:ARP:1,2017-07-02T01:30:00Z,28.4330,-82.6670,-9.865,1111122 
COMPS,ioos:station:USF.COMPS:ARP:1,2017-07-02T01:36:00Z,28.4330,-82.6670,-9.879,1111122 
COMPS,ioos:station:USF.COMPS:ARP:1,2017-07-02T01:42:00Z,28.4330,-82.6670,-9.889,1111122 
COMPS,ioos:station:USF.COMPS:ARP:1,2017-07-02T01:48:00Z,28.4330,-82.6670,-9.895,1111122 
COMPS,ioos:station:USF.COMPS:ARP:1,2017-07-02T01:54:00Z,28.4330,-82.6670,-9.895,1111122 
COMPS,ioos:station:USF.COMPS:ARP:1,2017-07-02T02:00:00Z,28.4330,-82.6670,-9.895,1111122 
COMPS,ioos:station:USF.COMPS:ARP:1,2017-07-02T02:06:00Z,28.4330,-82.6670,-9.894,1111122 
COMPS,ioos:station:USF.COMPS:ARP:1,2017-07-02T02:12:00Z,28.4330,-82.6670,-9.894,1111122 
COMPS,ioos:station:USF.COMPS:ARP:1,2017-07-02T02:18:00Z,28.4330,-82.6670,-9.907,1111122 
COMPS,ioos:station:USF.COMPS:ARP:1,2017-07-02T02:24:00Z,28.4330,-82.6670,-9.915,1111122 
COMPS,ioos:station:USF.COMPS:ARP:1,2017-07-02T02:30:00Z,28.4330,-82.6670,-9.925,1111122 
COMPS,ioos:station:USF.COMPS:ARP:1,2017-07-02T02:36:00Z,28.4330,-82.6670,-9.944,1111122 
COMPS,ioos:station:USF.COMPS:ARP:1,2017-07-02T02:42:00Z,28.4330,-82.6670,-9.959,1111122 
COMPS,ioos:station:USF.COMPS:ARP:1,2017-07-02T02:48:00Z,28.4330,-82.6670,-9.975,1111122 
COMPS,ioos:station:USF.COMPS:ARP:1,2017-07-02T02:54:00Z,28.4330,-82.6670,-9.984,1111122 
COMPS,ioos:station:USF.COMPS:ARP:1,2017-07-02T03:00:00Z,28.4330,-82.6670,-9.991,1111122 
COMPS,ioos:station:USF.COMPS:ARP:1,2017-07-02T09:36:00Z,28.4330,-82.6670,-9.988,1111122 
COMPS,ioos:station:USF.COMPS:ARP:1,2017-07-02T09:42:00Z,28.4330,-82.6670,-9.974,1111122 
COMPS,ioos:station:USF.COMPS:ARP:1,2017-07-02T09:48:00Z,28.4330,-82.6670,-9.957,1111122 
COMPS,ioos:station:USF.COMPS:ARP:1,2017-07-02T09:54:00Z,28.4330,-82.6670,-9.94,1111122 
COMPS,ioos:station:USF.COMPS:ARP:1,2017-07-02T10:00:00Z,28.4330,-82.6670,-9.924,1111122 
COMPS,ioos:station:USF.COMPS:ARP:1,2017-07-02T10:06:00Z,28.4330,-82.6670,-9.91,1111122 
COMPS,ioos:station:USF.COMPS:ARP:1,2017-07-02T10:12:00Z,28.4330,-82.6670,-9.895,1111122 
COMPS,ioos:station:USF.COMPS:ARP:1,2017-07-02T10:18:00Z,28.4330,-82.6670,-9.88,1111122 
COMPS,ioos:station:USF.COMPS:ARP:1,2017-07-02T10:24:00Z,28.4330,-82.6670,-9.865,1111122 
COMPS,ioos:station:USF.COMPS:ARP:1,2017-07-02T10:30:00Z,28.4330,-82.6670,-9.847,1111122 
COMPS,ioos:station:USF.COMPS:ARP:1,2017-07-02T10:36:00Z,28.4330,-82.6670,-9.83,1111122 
COMPS,ioos:station:USF.COMPS:ARP:1,2017-07-02T10:42:00Z,28.4330,-82.6670,-9.815,1111122 
COMPS,ioos:station:USF.COMPS:ARP:1,2017-07-02T10:48:00Z,28.4330,-82.6670,-9.801,1111122 
COMPS,ioos:station:USF.COMPS:ARP:1,2017-07-02T10:54:00Z,28.4330,-82.6670,-9.787,1111122 
COMPS,ioos:station:USF.COMPS:ARP:1,2017-07-02T11:00:00Z,28.4330,-82.6670,-9.771,1111122 
COMPS,ioos:station:USF.COMPS:ARP:1,2017-07-02T11:06:00Z,28.4330,-82.6670,-9.757,1111122 
COMPS,ioos:station:USF.COMPS:ARP:1,2017-07-02T11:12:00Z,28.4330,-82.6670,-9.74,1111122 
COMPS,ioos:station:USF.COMPS:ARP:1,2017-07-02T11:18:00Z,28.4330,-82.6670,-9.729,1111122 
COMPS,ioos:station:USF.COMPS:ARP:1,2017-07-02T11:24:00Z,28.4330,-82.6670,-9.716,1111122 
COMPS,ioos:station:USF.COMPS:ARP:1,2017-07-02T11:30:00Z,28.4330,-82.6670,-9.706,1111122 
COMPS,ioos:station:USF.COMPS:ARP:1,2017-07-02T11:36:00Z,28.4330,-82.6670,-9.694,1111122 
COMPS,ioos:station:USF.COMPS:ARP:1,2017-07-02T11:42:00Z,28.4330,-82.6670,-9.686,1111122 
COMPS,ioos:station:USF.COMPS:ARP:1,2017-07-02T11:48:00Z,28.4330,-82.6670,-9.677,1111122 
COMPS,ioos:station:USF.COMPS:ARP:1,2017-07-02T11:54:00Z,28.4330,-82.6670,-9.668,1111122 
COMPS,ioos:station:USF.COMPS:ARP:1,2017-07-02T12:00:00Z,28.4330,-82.6670,-9.662,1111122 
COMPS,ioos:station:USF.COMPS:ARP:1,2017-07-02T12:06:00Z,28.4330,-82.6670,-9.653,1111122 
COMPS,ioos:station:USF.COMPS:ARP:1,2017-07-02T12:12:00Z,28.4330,-82.6670,-9.65,1111122 
COMPS,ioos:station:USF.COMPS:ARP:1,2017-07-02T12:18:00Z,28.4330,-82.6670,-9.648,1111122 
COMPS,ioos:station:USF.COMPS:ARP:1,2017-07-02T12:24:00Z,28.4330,-82.6670,-9.641,1111122 
COMPS,ioos:station:USF.COMPS:ARP:1,2017-07-02T12:30:00Z,28.4330,-82.6670,-9.633,1111122 
COMPS,ioos:station:USF.COMPS:ARP:1,2017-07-02T12:36:00Z,28.4330,-82.6670,-9.627,1111122 
COMPS,ioos:station:USF.COMPS:ARP:1,2017-07-02T12:42:00Z,28.4330,-82.6670,-9.63,1111122 
COMPS,ioos:station:USF.COMPS:ARP:1,2017-07-02T12:48:00Z,28.4330,-82.6670,-9.621,1111122 
COMPS,ioos:station:USF.COMPS:ARP:1,2017-07-02T12:54:00Z,28.4330,-82.6670,-9.625,1111122 
COMPS,ioos:station:USF.COMPS:ARP:1,2017-07-02T13:00:00Z,28.4330,-82.6670,-9.634,1111122 
COMPS,ioos:station:USF.COMPS:ARP:1,2017-07-02T13:06:00Z,28.4330,-82.6670,-9.65,1111122 
COMPS,ioos:station:USF.COMPS:ARP:1,2017-07-02T13:12:00Z,28.4330,-82.6670,-9.657,1111122 
COMPS,ioos:station:USF.COMPS:ARP:1,2017-07-02T13:18:00Z,28.4330,-82.6670,-9.67,1111122 
COMPS,ioos:station:USF.COMPS:ARP:1,2017-07-02T13:24:00Z,28.4330,-82.6670,-9.678,1111122 
COMPS,ioos:station:USF.COMPS:ARP:1,2017-07-02T13:30:00Z,28.4330,-82.6670,-9.695,1111122 
COMPS,ioos:station:USF.COMPS:ARP:1,2017-07-02T13:36:00Z,28.4330,-82.6670,-9.694,1111122 
COMPS,ioos:station:USF.COMPS:ARP:1,2017-07-02T13:42:00Z,28.4330,-82.6670,-9.695,1111122 
COMPS,ioos:station:USF.COMPS:ARP:1,2017-07-02T13:48:00Z,28.4330,-82.6670,-9.702,1111122 
COMPS,ioos:station:USF.COMPS:ARP:1,2017-07-02T13:54:00Z,28.4330,-82.6670,-9.699,1111122 
COMPS,ioos:station:USF.COMPS:ARP:1,2017-07-02T14:00:00Z,28.4330,-82.6670,-9.696,1111122 
COMPS,ioos:station:USF.COMPS:ARP:1,2017-07-02T14:06:00Z,28.4330,-82.6670,-9.701,1111122 
COMPS,ioos:station:USF.COMPS:ARP:1,2017-07-02T14:12:00Z,28.4330,-82.6670,-9.714,1111122 
COMPS,ioos:station:USF.COMPS:ARP:1,2017-07-02T14:18:00Z,28.4330,-82.6670,-9.724,1111122 
COMPS,ioos:station:USF.COMPS:ARP:1,2017-07-02T14:24:00Z,28.4330,-82.6670,-9.74,1111122 
COMPS,ioos:station:USF.COMPS:ARP:1,2017-07-02T14:30:00Z,28.4330,-82.6670,-9.749,1111122 
COMPS,ioos:station:USF.COMPS:ARP:1,2017-07-02T14:36:00Z,28.4330,-82.6670,-9.766,1111122 
COMPS,ioos:station:USF.COMPS:ARP:1,2017-07-02T14:42:00Z,28.4330,-82.6670,-9.778,1111122 
COMPS,ioos:station:USF.COMPS:ARP:1,2017-07-02T14:48:00Z,28.4330,-82.6670,-9.79,1111122 
COMPS,ioos:station:USF.COMPS:ARP:1,2017-07-02T14:54:00Z,28.4330,-82.6670,-9.803,1111122 
COMPS,ioos:station:USF.COMPS:ARP:1,2017-07-02T15:00:00Z,28.4330,-82.6670,-9.812,1111122 
COMPS,ioos:station:USF.COMPS:ARP:1,2017-07-02T15:06:00Z,28.4330,-82.6670,-9.825,1111122 
COMPS,ioos:station:USF.COMPS:ARP:1,2017-07-02T15:12:00Z,28.4330,-82.6670,-9.838,1111122 
COMPS,ioos:station:USF.COMPS:ARP:1,2017-07-02T15:18:00Z,28.4330,-82.6670,-9.855,1111122 
COMPS,ioos:station:USF.COMPS:ARP:1,2017-07-02T15:24:00Z,28.4330,-82.6670,-9.867,1111122 
COMPS,ioos:station:USF.COMPS:ARP:1,2017-07-02T15:30:00Z,28.4330,-82.6670,-9.88,1111122 
COMPS,ioos:station:USF.COMPS:ARP:1,2017-07-02T15:36:00Z,28.4330,-82.6670,-9.891,1111122 
COMPS,ioos:station:USF.COMPS:ARP:1,2017-07-02T15:42:00Z,28.4330,-82.6670,-9.902,1111122 
COMPS,ioos:station:USF.COMPS:ARP:1,2017-07-02T15:48:00Z,28.4330,-82.6670,-9.914,1111122 
COMPS,ioos:station:USF.COMPS:ARP:1,2017-07-02T15:54:00Z,28.4330,-82.6670,-9.926,1111122 
COMPS,ioos:station:USF.COMPS:ARP:1,2017-07-02T16:00:00Z,28.4330,-82.6670,-9.94,1111122 
COMPS,ioos:station:USF.COMPS:ARP:1,2017-07-02T16:06:00Z,28.4330,-82.6670,-9.953,1111122 
COMPS,ioos:station:USF.COMPS:ARP:1,2017-07-02T16:12:00Z,28.4330,-82.6670,-9.969,1111122 
COMPS,ioos:station:USF.COMPS:ARP:1,2017-07-02T16:18:00Z,28.4330,-82.6670,-9.984,1111122 
COMPS,ioos:station:USF.COMPS:ARP:1,2017-07-02T16:24:00Z,28.4330,-82.6670,-9.997,1111122 
COMPS,ioos:station:USF.COMPS:ARP:1,2017-07-02T23:30:00Z,28.4330,-82.6670,-9.993,1111122 
COMPS,ioos:station:USF.COMPS:ARP:1,2017-07-02T23:36:00Z,28.4330,-82.6670,-9.986,1111122 
COMPS,ioos:station:USF.COMPS:ARP:1,2017-07-02T23:42:00Z,28.4330,-82.6670,-9.973,1111122 
COMPS,ioos:station:USF.COMPS:ARP:1,2017-07-02T23:48:00Z,28.4330,-82.6670,-9.962,1111122 
COMPS,ioos:station:USF.COMPS:ARP:1,2017-07-02T23:54:00Z,28.4330,-82.6670,-9.951,1111122 
COMPS,ioos:station:USF.COMPS:ARP:1,2017-07-03T00:00:00Z,28.4330,-82.6670,-9.939,1111122 
COMPS,ioos:station:USF.COMPS:ARP:1,2017-07-03T00:06:00Z,28.4330,-82.6670,-9.925,1111122 
COMPS,ioos:station:USF.COMPS:ARP:1,2017-07-03T00:12:00Z,28.4330,-82.6670,-9.916,1111122 
COMPS,ioos:station:USF.COMPS:ARP:1,2017-07-03T00:18:00Z,28.4330,-82.6670,-9.907,1111122 
COMPS,ioos:station:USF.COMPS:ARP:1,2017-07-03T00:24:00Z,28.4330,-82.6670,-9.897,1111122 
COMPS,ioos:station:USF.COMPS:ARP:1,2017-07-03T00:30:00Z,28.4330,-82.6670,-9.885,1111122 
COMPS,ioos:station:USF.COMPS:ARP:1,2017-07-03T00:36:00Z,28.4330,-82.6670,-9.878,1111122 
COMPS,ioos:station:USF.COMPS:ARP:1,2017-07-03T00:42:00Z,28.4330,-82.6670,-9.866,1111122 
COMPS,ioos:station:USF.COMPS:ARP:1,2017-07-03T00:48:00Z,28.4330,-82.6670,-9.858,1111122 
COMPS,ioos:station:USF.COMPS:ARP:1,2017-07-03T00:54:00Z,28.4330,-82.6670,-9.85,1111122 
COMPS,ioos:station:USF.COMPS:ARP:1,2017-07-03T01:00:00Z,28.4330,-82.6670,-9.842,1111122 
COMPS,ioos:station:USF.COMPS:ARP:1,2017-07-03T01:06:00Z,28.4330,-82.6670,-9.836,1111122 
COMPS,ioos:station:USF.COMPS:ARP:1,2017-07-03T01:12:00Z,28.4330,-82.6670,-9.831,1111122 
COMPS,ioos:station:USF.COMPS:ARP:1,2017-07-03T01:18:00Z,28.4330,-82.6670,-9.824,1111122 
COMPS,ioos:station:USF.COMPS:ARP:1,2017-07-03T01:24:00Z,28.4330,-82.6670,-9.822,1111122 
COMPS,ioos:station:USF.COMPS:ARP:1,2017-07-03T01:30:00Z,28.4330,-82.6670,-9.817,1111122 
COMPS,ioos:station:USF.COMPS:ARP:1,2017-07-03T01:36:00Z,28.4330,-82.6670,-9.816,1111122 
COMPS,ioos:station:USF.COMPS:ARP:1,2017-07-03T01:42:00Z,28.4330,-82.6670,-9.815,1111122 
COMPS,ioos:station:USF.COMPS:ARP:1,2017-07-03T01:48:00Z,28.4330,-82.6670,-9.822,1111122 
COMPS,ioos:station:USF.COMPS:ARP:1,2017-07-03T01:54:00Z,28.4330,-82.6670,-9.83,1111122 
COMPS,ioos:station:USF.COMPS:ARP:1,2017-07-03T02:00:00Z,28.4330,-82.6670,-9.834,1111122 
COMPS,ioos:station:USF.COMPS:ARP:1,2017-07-03T02:06:00Z,28.4330,-82.6670,-9.843,1111122 
COMPS,ioos:station:USF.COMPS:ARP:1,2017-07-03T02:12:00Z,28.4330,-82.6670,-9.846,1111122 
COMPS,ioos:station:USF.COMPS:ARP:1,2017-07-03T02:18:00Z,28.4330,-82.6670,-9.857,1111122 
COMPS,ioos:station:USF.COMPS:ARP:1,2017-07-03T02:24:00Z,28.4330,-82.6670,-9.862,1111122 
COMPS,ioos:station:USF.COMPS:ARP:1,2017-07-03T02:30:00Z,28.4330,-82.6670,-9.868,1111122 
COMPS,ioos:station:USF.COMPS:ARP:1,2017-07-03T02:36:00Z,28.4330,-82.6670,-9.867,1111122 
COMPS,ioos:station:USF.COMPS:ARP:1,2017-07-03T02:42:00Z,28.4330,-82.6670,-9.863,1111122 
COMPS,ioos:station:USF.COMPS:ARP:1,2017-07-03T02:48:00Z,28.4330,-82.6670,-9.864,1111122 
COMPS,ioos:station:USF.COMPS:ARP:1,2017-07-03T02:54:00Z,28.4330,-82.6670,-9.866,1111122 
COMPS,ioos:station:USF.COMPS:ARP:1,2017-07-03T03:00:00Z,28.4330,-82.6670,-9.873,1111122 
COMPS,ioos:station:USF.COMPS:ARP:1,2017-07-03T03:06:00Z,28.4330,-82.6670,-9.884,1111122 
COMPS,ioos:station:USF.COMPS:ARP:1,2017-07-03T03:12:00Z,28.4330,-82.6670,-9.894,1111122 
COMPS,ioos:station:USF.COMPS:ARP:1,2017-07-03T03:18:00Z,28.4330,-82.6670,-9.906,1111122 
COMPS,ioos:station:USF.COMPS:ARP:1,2017-07-03T03:24:00Z,28.4330,-82.6670,-9.915,1111122 
COMPS,ioos:station:USF.COMPS:ARP:1,2017-07-03T03:30:00Z,28.4330,-82.6670,-9.927,1111122 
COMPS,ioos:station:USF.COMPS:ARP:1,2017-07-03T03:36:00Z,28.4330,-82.6670,-9.931,1111122 
COMPS,ioos:station:USF.COMPS:ARP:1,2017-07-03T03:42:00Z,28.4330,-82.6670,-9.942,1111122 
COMPS,ioos:station:USF.COMPS:ARP:1,2017-07-03T03:48:00Z,28.4330,-82.6670,-9.952,1111122 
COMPS,ioos:station:USF.COMPS:ARP:1,2017-07-03T03:54:00Z,28.4330,-82.6670,-9.954,1111122 
COMPS,ioos:station:USF.COMPS:ARP:1,2017-07-03T04:00:00Z,28.4330,-82.6670,-9.961,1111122 
COMPS,ioos:station:USF.COMPS:ARP:1,2017-07-03T04:06:00Z,28.4330,-82.6670,-9.966,1111122 
COMPS,ioos:station:USF.COMPS:ARP:1,2017-07-03T04:12:00Z,28.4330,-82.6670,-9.973,1111122 
COMPS,ioos:station:USF.COMPS:ARP:1,2017-07-03T04:18:00Z,28.4330,-82.6670,-9.983,1111122 
COMPS,ioos:station:USF.COMPS:ARP:1,2017-07-03T04:24:00Z,28.4330,-82.6670,-9.992,1111122 
COMPS,ioos:station:USF.COMPS:ARP:1,2017-07-03T10:24:00Z,28.4330,-82.6670,-9.992,1111122 
COMPS,ioos:station:USF.COMPS:ARP:1,2017-07-03T10:30:00Z,28.4330,-82.6670,-9.971,1111122 
COMPS,ioos:station:USF.COMPS:ARP:1,2017-07-03T10:36:00Z,28.4330,-82.6670,-9.952,1111122 
COMPS,ioos:station:USF.COMPS:ARP:1,2017-07-03T10:42:00Z,28.4330,-82.6670,-9.933,1111122 
COMPS,ioos:station:USF.COMPS:ARP:1,2017-07-03T10:48:00Z,28.4330,-82.6670,-9.914,1111122 